Wind_Speed
16 16 16 16 16 17 17 18 18 19 19 19 19 20 19 20 20 20 21 22 22 22 23 23 24 24 24 23 23 23 23 24 25 25 25 26 27 27 26 26 27 27 28
15 15 15 15 15 16 17 17 17 17 19 19 19 19 19 19 19 19 20 21 21 21 23 23 24 24 24 23 23 23 23 23 24 24 25 25 25 26 26 27 27 28 29
14 14 14 14 15 16 17 17 17 18 19 19 19 19 19 19 19 20 20 19 20 21 22 23 23 23 24 24 24 23 24 24 24 24 25 25 24 25 26 27 28 28 28
14 13 13 14 15 16 16 16 17 18 18 17 18 19 18 18 19 20 19 19 20 21 22 22 23 23 23 24 24 24 23 24 24 24 24 25 25 25 25 26 27 28 28
13 13 13 14 15 16 16 16 17 18 17 17 17 18 18 19 19 19 20 20 21 21 23 23 24 24 24 24 23 23 23 24 24 24 25 25 26 26 26 26 26 27 27
13 14 14 14 15 16 16 17 18 18 17 17 17 18 18 18 19 19 20 20 21 22 23 23 23 23 23 23 22 23 24 24 24 25 25 25 25 26 26 26 26 27 27
14 14 15 16 16 17 17 17 17 18 17 17 17 17 18 19 19 19 20 20 21 22 23 22 21 21 22 23 23 23 23 23 23 23 24 23 24 24 25 26 26 27 27
14 15 16 17 17 17 16 16 17 18 17 17 17 17 18 18 18 19 20 20 20 21 21 21 20 21 22 22 23 23 23 24 24 23 23 23 22 23 23 25 26 26 26
15 15 16 17 17 17 16 16 17 17 17 17 17 17 18 19 19 20 20 20 20 20 20 20 21 21 21 22 23 23 23 24 24 23 23 23 23 23 24 25 25 26 27
16 16 17 18 17 16 17 17 17 17 18 18 19 19 19 19 19 20 19 19 19 19 20 20 21 21 22 22 23 23 23 23 23 23 23 23 24 24 25 25 25 26 27
17 18 18 18 17 17 17 18 17 18 19 19 20 20 19 19 20 19 19 19 19 19 20 20 20 20 21 22 22 22 22 22 22 22 21 21 22 22 23 23 24 24 25
17 18 18 17 17 17 17 17 17 18 19 19 19 19 19 19 19 19 19 19 20 20 20 20 20 21 21 22 22 22 21 21 21 21 20 21 21 21 21 22 22 22 22
18 18 18 17 17 18 18 18 18 17 18 18 19 19 18 19 19 19 19 19 19 20 20 20 20 21 21 21 22 22 21 20 19 19 20 20 20 20 20 21 21 21 22
18 18 17 16 17 17 17 17 17 18 18 18 18 19 18 19 19 19 19 19 19 19 19 20 20 21 21 22 22 22 21 20 19 19 20 21 21 20 20 20 20 19 20
17 17 17 16 16 16 16 16 17 18 18 18 18 18 18 19 19 19 18 19 19 19 19 20 20 21 21 21 21 21 21 21 20 21 21 21 21 21 21 20 20 19 19
17 17 17 16 16 16 16 16 17 17 17 18 18 18 17 18 18 18 18 18 19 19 19 19 18 19 20 20 20 21 21 20 20 20 20 20 21 21 19 19 19 19 19
16 17 16 16 17 16 16 16 17 17 17 18 18 17 17 17 18 18 18 18 18 17 17 17 17 18 18 19 19 19 19 19 19 19 20 21 20 19 18 18 18 18 18
16 16 16 16 16 16 16 16 17 17 17 17 17 17 17 18 18 17 17 17 17 17 16 16 16 17 18 18 19 19 18 18 18 19 19 20 20 19 18 18 18 18 18
17 17 16 16 16 16 16 16 17 17 17 17 17 17 18 18 18 18 18 17 17 16 16 16 16 17 17 18 19 18 18 18 18 18 18 19 20 19 18 18 18 17 18
17 17 16 16 16 16 17 17 17 17 17 17 17 17 17 17 17 17 17 16 15 14 14 15 15 17 17 18 19 18 17 18 18 18 19 19 19 18 17 17 17 16 16
17 17 16 16 16 17 17 17 17 17 17 17 17 17 17 17 16 16 15 15 15 14 14 15 15 17 17 18 18 17 17 17 17 18 18 19 18 17 17 17 17 16 15
17 17 16 16 16 17 17 17 17 18 18 17 17 16 16 15 15 15 15 15 15 15 15 15 16 17 17 18 17 17 17 18 18 18 18 19 19 18 16 16 15 16 15
17 17 17 17 17 17 17 18 18 18 17 17 16 15 15 14 15 15 15 15 15 15 15 15 16 17 17 18 17 18 18 18 18 18 19 18 18 19 17 15 15 16 16
17 17 18 18 18 18 18 18 18 17 17 16 15 14 14 14 15 15 16 16 16 16 15 16 17 17 17 17 18 18 18 18 18 18 19 19 19 18 17 16 16 16 16
18 18 18 18 17 17 18 17 17 17 16 15 15 14 14 15 15 16 17 16 16 16 16 16 16 17 17 17 18 18 18 18 19 19 19 19 18 17 16 16 17 17 16
19 19 19 18 18 18 18 17 17 16 15 15 14 14 14 15 16 16 17 16 16 15 15 15 16 16 17 18 18 18 18 19 19 19 19 18 18 17 16 16 17 17 17
Wind_Direction
289 291 291 291 291 290 293 295 295 294 293 292 290 289 286 284 283 283 284 287 290 292 294 295 296 294 292 292 292 291 287 285 283 281 281 281 279 277 276 274 273 272 269
293 296 296 295 296 292 291 295 298 297 294 292 290 288 288 286 285 286 286 288 292 294 296 297 295 294 292 293 293 291 289 288 287 285 282 282 279 276 275 274 273 272 270
302 300 296 294 300 299 296 295 295 296 295 292 289 290 290 290 291 292 291 291 293 296 297 296 295 295 295 295 293 292 291 289 288 289 286 284 281 276 274 272 272 271 270
302 303 301 298 301 305 302 298 299 299 297 293 292 294 292 292 292 292 292 293 294 295 297 297 296 296 297 296 294 292 292 291 290 290 288 284 280 278 276 273 272 271 271
302 304 305 303 305 307 307 307 305 305 304 300 297 296 294 291 291 293 294 296 295 295 297 298 299 299 297 296 295 292 292 293 293 291 289 286 282 280 278 276 274 272 270
306 309 308 308 310 309 308 310 311 308 307 304 301 298 296 295 294 294 296 298 298 298 299 299 300 300 298 297 297 294 295 296 295 293 290 287 283 280 279 276 275 273 270
305 307 309 312 310 307 306 307 309 310 307 305 302 299 296 295 295 298 299 300 301 301 302 302 303 302 300 297 299 298 297 296 297 298 294 289 286 282 281 278 277 276 274
306 306 309 312 310 305 304 306 307 306 305 303 300 299 299 299 299 299 300 302 303 305 306 306 306 306 305 303 302 300 299 299 299 299 295 292 290 286 285 283 280 277 276
307 308 309 312 310 306 305 304 304 303 303 303 300 299 301 301 301 302 304 304 305 307 309 309 308 308 307 306 304 302 302 301 300 298 296 294 291 288 287 285 282 280 277
311 311 312 313 312 308 307 306 307 306 306 307 304 304 303 301 301 304 306 305 306 308 309 308 307 308 307 307 306 306 305 303 301 299 299 297 295 293 289 286 284 282 280
315 316 316 316 313 310 307 306 306 305 304 305 306 307 306 302 301 301 301 302 305 308 309 309 308 309 308 307 307 307 306 306 305 304 301 298 299 296 292 289 287 284 280
319 321 320 317 315 314 312 309 308 307 307 306 306 306 305 303 302 301 301 303 305 307 307 308 308 309 308 309 308 308 308 309 307 307 304 302 303 301 298 294 290 286 281
320 321 322 319 317 316 314 311 310 312 312 310 308 308 307 305 305 305 305 305 306 307 308 307 307 307 307 307 307 309 308 307 307 307 307 305 304 304 300 297 291 286 281
323 324 326 325 323 323 322 318 315 316 315 313 309 308 307 307 306 306 307 306 306 306 306 307 308 307 309 310 310 309 309 309 309 309 310 310 308 308 305 301 297 290 284
324 326 327 325 325 326 326 326 324 320 317 315 314 312 312 310 309 309 308 309 311 312 310 310 310 311 312 313 315 315 315 314 311 311 311 311 312 310 307 302 299 297 291
321 323 323 323 323 323 325 326 327 325 322 318 318 318 313 312 313 313 312 313 314 314 313 312 314 316 317 318 318 318 318 319 317 314 314 315 314 313 309 303 300 297 293
320 321 320 321 321 322 322 324 327 327 326 325 323 321 319 317 316 316 316 316 316 317 317 318 318 319 320 322 322 322 322 322 322 320 319 317 318 317 314 309 305 299 296
316 319 319 319 320 320 321 323 326 327 327 327 326 324 323 322 320 319 318 317 318 318 318 319 322 325 327 327 327 326 325 324 324 323 322 321 320 318 316 313 309 303 298
311 314 313 315 316 318 320 321 324 325 325 324 324 323 323 323 322 321 321 321 322 320 321 322 325 329 331 332 332 332 331 330 330 330 328 325 325 323 321 318 314 307 301
310 311 311 313 315 317 316 317 320 322 322 322 322 323 324 325 325 324 323 323 324 324 325 327 328 331 332 332 333 333 333 333 332 333 333 331 329 327 323 321 322 318 310
307 309 309 310 312 313 313 314 317 320 320 318 318 322 324 326 327 328 328 328 327 327 328 328 329 331 333 333 333 335 335 335 334 335 334 334 333 330 325 323 323 323 317
303 305 306 306 308 309 309 310 314 315 316 316 316 319 321 325 328 329 330 330 330 329 328 328 329 331 332 334 336 336 335 334 335 335 335 335 334 332 328 327 327 328 323
297 300 302 302 305 306 308 310 312 312 314 316 315 316 318 321 325 327 326 325 325 326 327 328 329 331 332 334 336 337 336 334 334 336 336 335 334 334 333 332 331 330 327
292 295 298 299 301 303 306 308 309 311 313 315 314 313 314 317 322 325 324 324 324 323 324 325 327 329 329 331 333 334 334 334 333 335 335 334 335 334 335 336 334 331 327
290 293 294 295 296 301 305 305 306 308 310 313 313 311 311 316 321 323 323 322 323 323 323 324 326 326 327 329 330 331 332 331 331 331 333 336 338 337 335 334 334 334 330
289 291 292 292 293 296 300 301 302 304 306 310 312 312 312 316 319 320 321 322 324 325 325 325 326 327 327 327 328 328 330 332 333 335 336 337 339 339 335 332 331 332 331
Height
5840 5838 5836 5834 5833 5830 5829 5826 5824 5822 5819 5817 5815 5814 5813 5812 5811 5810 5808 5807 5805 5805 5803 5801 5798 5796 5794 5792 5790 5788 5786 5784 5783 5782 5781 5779 5778 5777 5777 5776 5776 5776 5776
5836 5834 5833 5831 5828 5826 5824 5822 5820 5817 5815 5813 5811 5810 5809 5807 5806 5804 5803 5801 5800 5799 5797 5795 5792 5790 5788 5786 5784 5782 5780 5778 5776 5775 5773 5772 5771 5770 5770 5769 5769 5768 5768
5833 5832 5829 5827 5825 5822 5820 5818 5816 5814 5811 5809 5807 5806 5804 5803 5801 5800 5798 5796 5794 5793 5791 5789 5786 5784 5782 5780 5778 5776 5774 5772 5770 5767 5766 5764 5764 5763 5763 5762 5761 5761 5760
5831 5829 5826 5824 5822 5820 5817 5814 5812 5810 5807 5805 5803 5801 5800 5798 5797 5795 5793 5791 5789 5787 5785 5783 5780 5778 5776 5774 5772 5770 5767 5765 5763 5761 5759 5757 5756 5755 5755 5754 5753 5753 5752
5828 5826 5824 5822 5819 5817 5814 5812 5809 5806 5803 5801 5799 5797 5796 5794 5792 5790 5788 5786 5784 5782 5779 5777 5775 5773 5771 5768 5766 5763 5761 5759 5757 5755 5752 5750 5748 5747 5746 5746 5745 5745 5744
5825 5823 5821 5819 5817 5814 5811 5808 5806 5803 5800 5797 5795 5793 5791 5789 5787 5785 5783 5781 5778 5776 5774 5772 5769 5767 5765 5762 5760 5757 5755 5753 5750 5747 5745 5743 5741 5740 5738 5738 5738 5737 5737
5823 5821 5818 5816 5813 5811 5808 5805 5802 5800 5797 5794 5792 5789 5787 5785 5783 5780 5778 5775 5773 5771 5769 5766 5764 5761 5759 5756 5754 5751 5749 5746 5743 5740 5738 5736 5734 5732 5731 5731 5730 5730 5729
5820 5818 5815 5813 5810 5807 5804 5802 5799 5796 5793 5791 5788 5785 5783 5780 5778 5776 5773 5771 5768 5766 5763 5761 5759 5756 5753 5751 5748 5745 5742 5739 5736 5734 5731 5728 5727 5725 5724 5723 5723 5722 5722
5817 5815 5812 5809 5806 5803 5800 5798 5795 5792 5790 5787 5784 5781 5779 5776 5773 5771 5769 5766 5764 5761 5759 5756 5754 5751 5748 5745 5742 5739 5736 5733 5730 5727 5724 5722 5720 5718 5717 5716 5715 5714 5713
5814 5812 5809 5806 5803 5800 5797 5794 5791 5789 5786 5783 5780 5777 5774 5772 5769 5767 5764 5762 5759 5757 5754 5751 5749 5746 5743 5740 5737 5733 5730 5727 5724 5721 5718 5716 5713 5711 5709 5708 5707 5705 5704
5811 5809 5805 5802 5799 5796 5793 5790 5788 5785 5782 5779 5776 5773 5770 5768 5765 5762 5760 5757 5755 5752 5750 5747 5744 5741 5738 5735 5732 5728 5724 5721 5718 5715 5713 5710 5707 5705 5702 5701 5699 5697 5696
5808 5805 5802 5799 5796 5793 5790 5787 5784 5781 5778 5775 5772 5769 5766 5763 5761 5758 5755 5753 5750 5747 5745 5742 5739 5736 5733 5730 5726 5723 5719 5716 5713 5710 5707 5704 5701 5699 5696 5694 5692 5690 5689
5805 5802 5798 5795 5792 5789 5786 5783 5780 5777 5774 5771 5768 5765 5762 5759 5756 5754 5751 5748 5745 5743 5740 5737 5734 5731 5728 5724 5721 5718 5715 5711 5708 5705 5702 5699 5696 5693 5691 5688 5686 5684 5683
5801 5798 5795 5792 5789 5786 5783 5780 5777 5774 5770 5767 5764 5761 5758 5755 5752 5749 5747 5744 5741 5738 5735 5732 5729 5726 5723 5719 5716 5712 5709 5706 5703 5700 5697 5693 5690 5687 5685 5682 5680 5678 5676
5798 5795 5792 5789 5786 5783 5780 5777 5774 5770 5767 5764 5760 5757 5754 5751 5748 5745 5742 5739 5736 5733 5730 5728 5725 5721 5718 5715 5711 5707 5704 5701 5698 5695 5691 5688 5685 5682 5679 5676 5674 5672 5670
5795 5792 5789 5786 5783 5780 5777 5774 5771 5767 5764 5760 5757 5753 5750 5747 5744 5741 5739 5736 5732 5729 5726 5723 5720 5717 5714 5710 5706 5703 5699 5696 5693 5690 5686 5683 5680 5676 5673 5671 5668 5667 5665
5792 5788 5785 5783 5780 5777 5774 5771 5768 5764 5761 5757 5753 5750 5747 5744 5741 5738 5735 5732 5729 5726 5722 5719 5716 5713 5710 5706 5702 5699 5695 5692 5689 5685 5682 5678 5675 5671 5668 5666 5663 5661 5659
5788 5785 5782 5779 5776 5773 5771 5768 5765 5761 5758 5754 5751 5747 5744 5741 5737 5734 5731 5728 5725 5722 5719 5716 5713 5709 5706 5702 5699 5695 5691 5688 5685 5681 5677 5674 5670 5667 5663 5661 5658 5656 5654
5784 5781 5779 5776 5773 5770 5767 5765 5761 5758 5755 5752 5748 5744 5741 5738 5734 5731 5728 5725 5722 5719 5716 5713 5709 5706 5703 5699 5695 5692 5688 5685 5681 5678 5674 5670 5666 5663 5659 5656 5653 5651 5649
5780 5777 5775 5772 5769 5767 5764 5761 5758 5755 5752 5748 5745 5741 5738 5734 5731 5728 5725 5722 5719 5716 5713 5710 5706 5703 5700 5696 5692 5689 5685 5682 5678 5674 5670 5666 5662 5659 5655 5652 5649 5646 5644
5775 5773 5771 5768 5766 5763 5760 5758 5755 5751 5748 5745 5741 5738 5735 5731 5728 5725 5722 5719 5716 5713 5710 5707 5704 5701 5697 5693 5690 5686 5682 5678 5674 5671 5667 5663 5659 5655 5651 5648 5645 5642 5639
5771 5769 5767 5764 5762 5759 5756 5754 5751 5747 5744 5741 5738 5734 5731 5728 5725 5722 5719 5716 5713 5710 5707 5704 5701 5698 5694 5691 5687 5683 5679 5675 5671 5668 5664 5660 5656 5652 5648 5644 5641 5638 5635
5766 5764 5762 5760 5757 5755 5752 5749 5746 5743 5740 5737 5734 5731 5728 5725 5722 5720 5717 5713 5711 5708 5705 5702 5698 5695 5692 5688 5684 5681 5677 5673 5669 5665 5660 5656 5652 5648 5644 5641 5638 5635 5632
5761 5759 5757 5755 5753 5750 5747 5744 5741 5738 5736 5733 5730 5727 5725 5722 5719 5717 5714 5711 5708 5705 5702 5699 5696 5692 5689 5685 5682 5678 5674 5670 5666 5661 5657 5653 5649 5645 5641 5638 5635 5632 5629
5755 5754 5752 5750 5748 5745 5743 5740 5737 5734 5732 5729 5726 5724 5721 5719 5717 5714 5711 5708 5705 5702 5699 5696 5693 5690 5686 5683 5679 5675 5671 5667 5663 5658 5654 5650 5646 5642 5639 5636 5632 5629 5625
5749 5748 5746 5744 5742 5740 5738 5735 5733 5730 5728 5725 5723 5721 5718 5716 5713 5711 5708 5705 5702 5699 5696 5693 5690 5687 5683 5680 5676 5672 5668 5664 5660 5655 5651 5647 5643 5640 5636 5633 5630 5626 5623